Location: Heiligenberg
(48.5381°N, 7.3897°E)
Time: 06:32:25
(UTC+00:00)

Cosmos 1461 - Visible Passes

Search period start: 06 October 2022 00:00
Search period end: 16 October 2022 00:00
Orbit: 507 x 644 km, 65.0° (Epoch: 05 October)

Date Brightness Start Highest point End Pass type
(mag) Time Alt. Az. Time Alt. Az. Time Alt. Az.
06 Oct 5.6 02:09:53 16° E 02:09:53 16° E 02:11:18 10° ENE visible
06 Oct 3.0 03:46:08 48° W 03:46:51 56° NW 03:51:01 10° NNE visible
07 Oct 5.4 02:13:34 19° ENE 02:13:34 19° ENE 02:15:08 10° ENE visible
07 Oct 3.4 03:49:49 37° WNW 03:50:20 39° NW 03:54:21 10° NNE visible
08 Oct 5.3 02:17:11 21° ENE 02:17:11 21° ENE 02:18:46 10° NE visible
08 Oct 3.9 03:53:25 29° NW 03:53:52 29° NW 03:57:38 10° NNE visible
09 Oct 5.3 02:20:43 21° NE 02:20:43 21° NE 02:22:17 10° NE visible
09 Oct 4.3 03:56:57 22° NW 03:57:26 23° NW 04:00:52 10° NNE visible
10 Oct 5.3 02:24:13 21° NE 02:24:13 21° NE 02:25:41 10° NE visible
10 Oct 4.6 04:00:27 18° NW 04:01:03 18° NNW 04:04:04 10° NNE visible
11 Oct 5.3 02:27:39 19° NNE 02:27:39 19° NNE 02:29:01 10° NNE visible
11 Oct 4.9 04:03:53 14° NW 04:04:41 15° NNW 04:07:13 10° NNE visible
12 Oct 5.4 02:31:03 18° NNE 02:31:03 18° NNE 02:32:18 10° NNE visible
12 Oct 5.1 04:07:17 12° NW 04:08:21 13° NNW 04:10:19 10° N visible
13 Oct 5.5 02:34:25 16° NNE 02:34:25 16° NNE 02:35:32 10° NNE visible
13 Oct 5.3 04:10:47 10° NNW 04:12:02 11° NNW 04:13:19 10° N visible
14 Oct 5.5 02:37:45 14° N 02:37:45 14° N 02:38:43 10° NNE visible
15 Oct 5.6 02:41:03 13° N 02:41:03 13° N 02:41:51 10° NNE visible
